Find WHDW 10-01

NORAD ID: 65305 Int'l Des: 2025-187 Owner: ZXW Country: CN Constellation: xingwang operational
LEOCIRCULAR

現在のビュー

3D地球を読み込み中...

WHDW 10-01について

説明を読み込み中...

次回通過

Passes for default location (London). Set your location on the main map for personalized predictions.

高度履歴

Loading altitude history...

軌道要素

1 65305U 25187A 26150.16937862 -.00000087 00000-0 78794-4 0 9993
2 65305 50.0055 270.4993 0000555 115.9576 244.1353 13.29322794 37306
Epoch: May 30, 2026 • Age: 8 hours

現在のステータス

高度 1148.8 km
速度 7.28 km/s
衛星直下点 12.74°N, 8.9°E
打ち上げ日 Aug 25, 2025
運用期間 0.7 years
タイプ other

技術仕様

分類 Payload
質量 800.00 kg
乾燥質量 800.00 kg
総質量 800.00 kg
長さ 3.00 m
直径 1.00 m
スパン 10.00 m
形状 Box + 2 Pan
製造者 SECM
バスタイプ Xingwang S
フェーズステータス In Orbit
所有者/国 ZXW/CN

Most Searched